Date String (YYYY-MM-DD hh:mm:ss) UTC,Instrument flags,absolute air pressure of the measurement (hPa),sample flow rate (lpm),inlet stack bypass flow (lpm),air temperature of the measurement (°C),ambient temperature measured by the external sensor (°C),aerosol sample conditioner tube jacket temperature (°C),OPC LED temperature (°C),internal box temperature (°C),relative humidity of the measurement (%),span deviation,mass concentration of particles derived from Lorenz-Mie calculation of OPC scattering (μg/m³),mass concentration of particles derived from Lorenz-Mie calculation of OPC scattering (μg/m³),mass concentration of particles derived from Lorenz-Mie calculation of OPC scattering (μg/m³)
DateTimeUTC,F1_M11,P_M11,Q1_M11,Q2_M11,T1_M11,T2_M11,T3_M11,T4_M11,T5_M11,U1_M11,ZSPAN_M11,X0_M11,X2_M11,X1_M11
2024-02-12 06:00:00,SystemResetWarning,0828.5,5.01,000.00,018.4,017.7,000.0,026.8,020.0,11.3,0000.0,0004.64,0002.76,0002.50
2024-02-12 06:01:00,SystemResetWarning,0828.5,5.00,000.00,018.3,017.6,000.0,026.8,020.0,11.3,0000.0,0004.27,0002.75,0002.49
2024-02-12 06:02:00,SystemResetWarning,0828.5,5.00,000.00,018.3,017.6,000.0,026.8,020.0,11.3,0000.0,0004.22,0002.74,0002.50
2024-02-12 06:03:00,SystemResetWarning,0828.5,4.99,000.00,018.3,017.5,000.0,026.8,020.0,11.3,0000.0,0003.53,0002.74,0002.50
2024-02-12 06:04:00,SystemResetWarning,0828.5,5.00,000.00,018.3,017.5,000.0,026.9,020.0,11.4,0000.0,0003.53,0002.75,0002.50
2024-02-12 06:05:00,SystemResetWarning,0828.5,5.00,000.00,018.3,017.4,000.0,026.9,020.0,11.4,0000.0,0003.51,0002.73,0002.50
2024-02-12 06:06:00,SystemResetWarning,0828.4,5.01,000.00,018.3,017.4,000.0,026.9,020.0,11.4,0000.0,0003.43,0002.72,0002.48
2024-02-12 06:07:00,SystemResetWarning,0828.4,5.00,000.00,018.3,017.7,000.0,026.9,020.2,11.3,0000.0,0003.33,0002.71,0002.48
2024-02-12 06:08:00,SystemResetWarning,0828.4,5.02,000.00,018.5,018.4,000.0,027.0,020.6,11.3,0000.0,0003.27,0002.68,0002.47
2024-02-12 06:09:00,SystemResetWarning,0828.5,4.99,000.00,018.7,018.9,000.0,027.0,020.8,11.1,0000.0,0003.21,0002.65,0002.46
2024-02-12 06:10:00,SystemResetWarning,0828.4,4.99,000.00,018.7,018.7,000.0,027.0,020.5,11.1,0000.0,0003.19,0002.63,0002.45
2024-02-12 06:11:00,SystemResetWarning,0828.4,5.00,000.00,018.6,018.5,000.0,026.9,020.3,11.2,0000.0,0003.12,0002.59,0002.43
2024-02-12 06:12:00,SystemResetWarning,0828.4,5.00,000.00,018.6,018.3,000.0,026.9,020.2,11.2,0000.0,0003.66,0002.59,0002.42
2024-02-12 06:13:00,SystemResetWarning,0828.4,5.00,000.00,018.5,018.2,000.0,026.9,020.1,11.3,0000.0,0003.71,0002.59,0002.41
2024-02-12 06:14:00,SystemResetWarning,0828.4,5.00,000.00,018.5,018.1,000.0,026.8,020.1,11.3,0000.0,0003.69,0002.58,0002.40
2024-02-12 06:15:00,SystemResetWarning,0828.4,5.00,000.00,018.5,017.9,000.0,026.8,020.0,11.3,0000.0,0003.70,0002.55,0002.38
2024-02-12 06:16:00,SystemResetWarning,0828.4,5.01,000.00,018.4,017.9,000.0,026.8,020.0,11.3,0000.0,0003.67,0002.53,0002.36
2024-02-12 06:17:00,SystemResetWarning,0828.4,5.01,000.00,018.4,017.8,000.0,026.8,020.0,11.3,0000.0,0003.68,0002.54,0002.35
2024-02-12 06:18:00,SystemResetWarning,0828.4,5.00,000.00,018.4,017.7,000.0,026.8,020.0,11.4,0000.0,0003.68,0002.53,0002.34
2024-02-12 06:19:00,SystemResetWarning,0828.4,5.00,000.00,018.4,017.7,000.0,026.8,020.0,11.4,0000.0,0003.82,0002.54,0002.34
2024-02-12 06:20:00,SystemResetWarning,0828.4,5.00,000.00,018.3,017.6,000.0,026.9,020.0,11.4,0000.0,0003.84,0002.53,0002.33
2024-02-12 06:21:00,SystemResetWarning,0828.4,5.00,000.00,018.3,017.6,000.0,026.8,020.0,11.4,0000.0,0003.84,0002.54,0002.34
2024-02-12 06:22:00,SystemResetWarning,0828.3,5.00,000.00,018.3,017.6,000.0,026.8,020.0,11.5,0000.0,0003.84,0002.55,0002.35
2024-02-12 06:23:00,SystemResetWarning,0828.4,5.00,000.00,018.3,017.6,000.0,026.9,020.0,11.4,0000.0,0003.39,0002.56,0002.35
2024-02-12 06:24:00,SystemResetWarning,0828.3,5.00,000.00,018.3,017.5,000.0,026.9,020.0,11.4,0000.0,0003.26,0002.55,0002.35
2024-02-12 06:25:00,SystemResetWarning,0828.3,5.01,000.00,018.3,017.5,000.0,026.9,020.0,11.4,0000.0,0003.27,0002.56,0002.36
2024-02-12 06:26:00,SystemResetWarning,0828.4,5.00,000.00,018.3,017.5,000.0,026.9,020.0,11.4,0000.0,0003.33,0002.58,0002.38
2024-02-12 06:27:00,SystemResetWarning,0828.4,5.00,000.00,018.3,017.5,000.0,026.9,020.0,11.4,0000.0,0003.38,0002.60,0002.40
2024-02-12 06:28:00,SystemResetWarning,0828.4,5.01,000.00,018.3,017.9,000.0,027.0,020.2,11.4,0000.0,0003.38,0002.59,0002.40
2024-02-12 06:29:00,SystemResetWarning,0828.4,4.99,000.00,018.5,018.6,000.0,027.0,020.7,11.3,0000.0,0003.36,0002.59,0002.41
2024-02-12 06:30:00,SystemResetWarning,0828.4,5.00,000.00,018.7,019.3,000.0,027.1,021.1,11.1,0000.0,0003.29,0002.60,0002.42
2024-02-12 06:31:00,SystemResetWarning,0828.4,5.00,000.00,018.8,019.2,000.0,027.0,020.9,11.1,0000.0,0003.25,0002.61,0002.42
2024-02-12 06:32:00,SystemResetWarning,0828.4,5.00,000.00,018.8,019.0,000.0,027.0,020.6,11.1,0000.0,0003.28,0002.61,0002.41
2024-02-12 06:33:00,SystemResetWarning,0828.4,5.01,000.00,018.7,018.8,000.0,027.0,020.5,11.1,0000.0,0003.28,0002.61,0002.42
2024-02-12 06:34:00,SystemResetWarning,0828.4,5.00,000.00,018.7,018.6,000.0,026.9,020.3,11.1,0000.0,0003.27,0002.61,0002.41
2024-02-12 06:35:00,SystemResetWarning,0828.3,5.00,000.00,018.7,018.4,000.0,026.9,020.3,11.2,0000.0,0003.36,0002.65,0002.42
2024-02-12 06:36:00,SystemResetWarning,0828.3,5.00,000.00,018.6,018.2,000.0,026.9,020.2,11.2,0000.0,0003.34,0002.65,0002.42
2024-02-12 06:37:00,SystemResetWarning,0828.3,4.99,000.00,018.6,018.1,000.0,026.9,020.1,11.3,0000.0,0003.24,0002.64,0002.42
2024-02-12 06:38:00,SystemResetWarning,0828.3,4.99,000.00,018.5,018.0,000.0,026.9,020.1,11.2,0000.0,0003.20,0002.63,0002.41
2024-02-12 06:39:00,SystemResetWarning,0828.3,5.01,000.00,018.5,017.9,000.0,026.9,020.1,11.2,0000.0,0003.17,0002.63,0002.41
2024-02-12 06:40:00,SystemResetWarning,0828.3,5.00,000.00,018.5,017.8,000.0,026.9,020.0,11.2,0000.0,0003.17,0002.63,0002.40
2024-02-12 06:41:00,SystemResetWarning,0828.3,5.00,000.00,018.4,017.8,000.0,026.9,020.0,11.2,0000.0,0003.14,0002.60,0002.39
2024-02-12 06:42:00,SystemResetWarning,0828.3,4.99,000.00,018.4,017.7,000.0,026.9,020.0,11.2,0000.0,0003.14,0002.60,0002.39
2024-02-12 06:43:00,SystemResetWarning,0828.3,4.99,000.00,018.4,017.7,000.0,026.9,020.0,11.3,0000.0,0003.16,0002.60,0002.40
2024-02-12 06:44:00,SystemResetWarning,0828.3,5.00,000.00,018.4,017.6,000.0,026.9,020.0,11.3,0000.0,0003.48,0002.58,0002.38
2024-02-12 06:45:00,SystemResetWarning,0828.3,5.00,000.00,018.4,017.6,000.0,026.9,020.0,11.3,0000.0,0005.50,0002.59,0002.38
2024-02-12 06:46:00,SystemResetWarning,0828.2,5.00,000.00,018.3,017.6,000.0,026.9,020.0,11.2,0000.0,0006.82,0002.55,0002.37
2024-02-12 06:47:00,SystemResetWarning,0828.2,5.00,000.00,018.3,017.6,000.0,026.9,020.0,11.3,0000.0,0006.89,0002.58,0002.35
2024-02-12 06:48:00,SystemResetWarning,0828.2,5.00,000.00,018.3,017.6,000.0,026.9,020.0,11.2,0000.0,0006.96,0002.59,0002.34
2024-02-12 06:49:00,SystemResetWarning,0828.2,5.00,000.00,018.3,017.6,000.0,026.9,020.0,11.2,0000.0,0007.01,0002.61,0002.34
2024-02-12 06:50:00,SystemResetWarning,0828.2,5.00,000.00,018.3,017.5,000.0,026.9,020.0,11.2,0000.0,0006.99,0002.61,0002.35
2024-02-12 06:51:00,SystemResetWarning,0828.2,5.00,000.00,018.3,017.5,000.0,026.9,020.0,11.2,0000.0,0006.97,0002.59,0002.34
2024-02-12 06:52:00,SystemResetWarning,0828.2,5.00,000.00,018.3,017.6,000.0,026.9,020.1,11.3,0000.0,0006.96,0002.58,0002.33
2024-02-12 06:53:00,SystemResetWarning,0828.2,5.02,000.00,018.4,018.2,000.0,027.0,020.4,11.3,0000.0,0007.02,0002.57,0002.32
2024-02-12 06:54:00,SystemResetWarning,0828.2,4.99,000.00,018.6,018.8,000.0,027.0,020.8,11.2,0000.0,0007.10,0002.57,0002.32
2024-02-12 06:55:00,SystemResetWarning,0828.2,4.99,000.00,018.7,018.8,000.0,027.0,020.6,11.1,0000.0,0007.12,0002.59,0002.33
2024-02-12 06:56:00,SystemResetWarning,0828.2,5.01,000.00,018.6,018.6,000.0,026.9,020.4,11.1,0000.0,0005.65,0002.56,0002.31
2024-02-12 06:57:00,SystemResetWarning,0828.2,5.00,000.00,018.6,018.4,000.0,026.9,020.2,11.1,0000.0,0003.43,0002.57,0002.31
2024-02-12 06:58:00,SystemResetWarning,0828.2,5.00,000.00,018.5,018.2,000.0,026.8,020.1,11.1,0000.0,0003.32,0002.52,0002.30
2024-02-12 06:59:00,SystemResetWarning,0828.1,4.99,000.00,018.5,018.1,000.0,026.8,020.1,11.1,0000.0,0003.25,0002.49,0002.29
